| time (UTC) | temp F | wind direction | speed MPH | gust MPH | rain 1hr in | rain 24hr in | rain mn in | humidity % | barometer mb |
| 20260902022936 | 58 | 57 | 0.0 | 0.0 | 0.00 | 0.00 | 0.00 | 87 | 1010.3 |
| 20260902020928 | 60 | 51 | 0.0 | 0.0 | 0.00 | 0.00 | 0.00 | 84 | 1010.0 |
| 20260902015414 | 62 | 38 | 0.0 | 1.0 | 0.00 | 0.01 | 0.00 | 83 | 1009.8 |
| 20260902013414 | 65 | 38 | 0.0 | 0.0 | 0.00 | 0.01 | 0.00 | 78 | 1009.7 |
| 20260902011424 | 68 | 49 | 1.0 | 2.0 | 0.00 | 0.01 | 0.00 | 72 | 1009.8 |
| 20260902005431 | 72 | 41 | 2.0 | 5.0 | 0.00 | 0.01 | 0.00 | 66 | 1009.8 |
| 20260902003918 | 73 | 33 | 2.0 | 4.0 | 0.00 | 0.01 | 0.00 | 61 | 1009.8 |
| 20260902000919 | 75 | 76 | 1.0 | 4.0 | 0.00 | 0.01 | 0.00 | 56 | 1009.8 |
| 20260901234919 | 74 | 271 | 1.0 | 5.0 | 0.00 | 0.02 | 0.00 | 63 | 1009.8 |
| 20260901232425 | 74 | 17 | 1.0 | 5.0 | 0.00 | 0.02 | 0.00 | 59 | 1009.7 |
| 20260901230421 | 74 | 207 | 1.0 | 7.0 | 0.00 | 0.02 | 0.00 | 63 | 1009.9 |
| 20260901224916 | 73 | 226 | 3.0 | 10.0 | 0.00 | 0.04 | 0.00 | 62 | 1009.9 |
| 20260901222918 | 74 | 249 | 6.0 | 10.0 | 0.00 | 0.04 | 0.00 | 60 | 1009.9 |
| 20260901220914 | 74 | 5 | 3.0 | 6.0 | 0.00 | 0.04 | 0.00 | 59 | 1009.9 |
| 20260901214927 | 73 | 262 | 5.0 | 9.0 | 0.00 | 0.04 | 0.00 | 64 | 1010.2 |
| 20260901212928 | 73 | 17 | 3.0 | 10.0 | 0.00 | 0.04 | 0.00 | 62 | 1010.4 |
| 20260901211420 | 72 | 306 | 1.0 | 10.0 | 0.00 | 0.04 | 0.00 | 64 | 1010.5 |
| 20260901205916 | 72 | 284 | 3.0 | 14.0 | 0.00 | 0.04 | 0.00 | 67 | 1010.5 |
| 20260901203925 | 72 | 286 | 6.0 | 10.0 | 0.00 | 0.04 | 0.00 | 64 | 1010.5 |
| 20260901201930 | 72 | 326 | 4.0 | 10.0 | 0.00 | 0.04 | 0.00 | 67 | 1010.4 |
| 20260901200423 | 71 | 292 | 8.0 | 11.0 | 0.00 | 0.04 | 0.00 | 67 | 1010.5 |
| 20260901194423 | 70 | 315 | 5.0 | 11.0 | 0.00 | 0.05 | 0.00 | 70 | 1010.7 |
| 20260901192923 | 70 | 19 | 4.0 | 9.0 | 0.00 | 0.05 | 0.00 | 69 | 1010.7 |
| 20260901190429 | 69 | 272 | 6.0 | 11.0 | 0.00 | 0.05 | 0.00 | 71 | 1011.0 |
| 20260901184911 | 69 | 269 | 9.0 | 14.0 | 0.00 | 0.05 | 0.00 | 71 | 1010.9 |
| 20260901182923 | 68 | 267 | 7.0 | 12.0 | 0.00 | 0.05 | 0.00 | 73 | 1011.2 |
| 20260901180925 | 67 | 283 | 9.0 | 12.0 | 0.00 | 0.05 | 0.00 | 75 | 1011.3 |
| 20260901174924 | 67 | 269 | 7.0 | 12.0 | 0.00 | 0.05 | 0.00 | 74 | 1011.6 |
| 20260901172916 | 66 | 275 | 9.0 | 15.0 | 0.00 | 0.05 | 0.00 | 78 | 1011.5 |
| 20260901170926 | 65 | 267 | 11.0 | 15.0 | 0.00 | 0.05 | 0.00 | 80 | 1011.5 |
| 20260901163925 | 64 | 278 | 7.0 | 15.0 | 0.00 | 0.05 | 0.00 | 86 | 1011.5 |
| 20260901162413 | 62 | 275 | 7.0 | 14.0 | 0.00 | 0.05 | 0.00 | 88 | 1011.5 |
| 20260901160422 | 62 | 252 | 5.0 | 10.0 | 0.00 | 0.05 | 0.00 | 89 | 1011.5 |
| 20260901154416 | 60 | 252 | 5.0 | 9.0 | 0.00 | 0.05 | 0.00 | 92 | 1011.5 |
| 20260901152913 | 59 | 242 | 6.0 | 9.0 | 0.00 | 0.05 | 0.00 | 93 | 1011.4 |
| 20260901151412 | 58 | 255 | 6.0 | 11.0 | 0.00 | 0.05 | 0.00 | 94 | 1011.5 |
| 20260901145908 | 57 | 259 | 6.0 | 10.0 | 0.00 | 0.05 | 0.00 | 95 | 1011.4 |
| 20260901143921 | 56 | 240 | 6.0 | 10.0 | 0.00 | 0.05 | 0.00 | 96 | 1011.3 |
| 20260901141928 | 55 | 282 | 4.0 | 11.0 | 0.00 | 0.05 | 0.00 | 97 | 1011.2 |
| 20260901140421 | 54 | 264 | 6.0 | 10.0 | 0.00 | 0.05 | 0.00 | 96 | 1011.0 |
| 20260901134424 | 53 | 284 | 5.0 | 10.0 | 0.00 | 0.05 | 0.00 | 97 | 1010.8 |
| 20260901132433 | 52 | 265 | 7.0 | 11.0 | 0.00 | 0.05 | 0.00 | 96 | 1010.9 |
| 20260901130424 | 51 | 255 | 4.0 | 8.0 | 0.00 | 0.05 | 0.00 | 97 | 1010.8 |
| 20260901123931 | 50 | 236 | 6.0 | 10.0 | 0.00 | 0.06 | 0.00 | 96 | 1010.5 |
| 20260901122424 | 50 | 263 | 7.0 | 11.0 | 0.00 | 0.06 | 0.00 | 97 | 1010.3 |
| 20260901120912 | 50 | 267 | 4.0 | 9.0 | 0.00 | 0.06 | 0.00 | 96 | 1010.1 |
| 20260901114926 | 50 | 265 | 5.0 | 9.0 | 0.00 | 0.06 | 0.00 | 96 | 1010.0 |
| 20260901113415 | 50 | 232 | 3.0 | 5.0 | 0.00 | 0.06 | 0.00 | 96 | 1009.8 |
| 20260901110940 | 50 | 223 | 5.0 | 7.0 | 0.00 | 0.06 | 0.00 | 96 | 1009.6 |
| 20260901104916 | 50 | 234 | 3.0 | 5.0 | 0.00 | 0.06 | 0.00 | 96 | 1009.3 |
| 20260901102919 | 52 | 223 | 5.0 | 7.0 | 0.00 | 0.06 | 0.00 | 95 | 1009.3 |
| 20260901100934 | 52 | 227 | 3.0 | 7.0 | 0.00 | 0.06 | 0.00 | 96 | 1008.9 |
| 20260901095417 | 52 | 267 | 4.0 | 8.0 | 0.00 | 0.06 | 0.00 | 95 | 1008.8 |
| 20260901093430 | 53 | 259 | 5.0 | 7.0 | 0.00 | 0.06 | 0.00 | 95 | 1008.6 |
| 20260901091424 | 53 | 255 | 5.0 | 8.0 | 0.00 | 0.06 | 0.00 | 95 | 1008.3 |
| 20260901085920 | 53 | 250 | 4.0 | 9.0 | 0.00 | 0.06 | 0.00 | 95 | 1008.2 |
| 20260901084418 | 54 | 277 | 5.0 | 9.0 | 0.00 | 0.06 | 0.00 | 95 | 1008.2 |
| 20260901082430 | 54 | 248 | 6.0 | 10.0 | 0.00 | 0.06 | 0.00 | 95 | 1008.3 |
| 20260901080427 | 54 | 258 | 6.0 | 9.0 | 0.00 | 0.06 | 0.00 | 95 | 1008.3 |
| 20260901073912 | 55 | 263 | 6.0 | 11.0 | 0.00 | 0.06 | 0.00 | 95 | 1008.2 |
| 20260901071926 | 55 | 256 | 8.0 | 11.0 | 0.00 | 0.06 | 0.00 | 95 | 1007.9 |
| 20260901065927 | 55 | 242 | 7.0 | 12.0 | 0.00 | 0.06 | 0.00 | 94 | 1007.9 |
| 20260901063921 | 56 | 263 | 5.0 | 11.0 | 0.00 | 0.06 | 0.00 | 94 | 1007.8 |
| 20260901062418 | 56 | 249 | 6.0 | 12.0 | 0.00 | 0.06 | 0.00 | 94 | 1007.7 |
| 20260901060421 | 56 | 250 | 8.0 | 12.0 | 0.00 | 0.06 | 0.00 | 94 | 1007.3 |
| 20260901054911 | 56 | 267 | 8.0 | 13.0 | 0.00 | 0.07 | 0.06 | 94 | 1007.1 |
| 20260901052937 | 56 | 239 | 7.0 | 14.0 | 0.00 | 0.07 | 0.06 | 95 | 1006.9 |
| 20260901051428 | 57 | 257 | 6.0 | 12.0 | 0.00 | 0.07 | 0.06 | 95 | 1006.8 |
| 20260901045914 | 57 | 228 | 7.0 | 12.0 | 0.00 | 0.07 | 0.06 | 95 | 1006.6 |
| 20260901043921 | 57 | 261 | 5.0 | 10.0 | 0.00 | 0.07 | 0.06 | 95 | 1006.6 |
| 20260901041926 | 57 | 273 | 6.0 | 12.0 | 0.00 | 0.07 | 0.06 | 95 | 1006.6 |
| 20260901035918 | 57 | 270 | 6.0 | 12.0 | 0.00 | 0.07 | 0.06 | 95 | 1006.5 |
| 20260901033919 | 56 | 250 | 5.0 | 10.0 | 0.00 | 0.08 | 0.06 | 95 | 1006.2 |
| 20260901031926 | 57 | 267 | 5.0 | 11.0 | 0.00 | 0.08 | 0.06 | 94 | 1006.1 |
| 20260901025924 | 57 | 261 | 8.0 | 13.0 | 0.00 | 0.08 | 0.06 | 93 | 1005.8 |
| 20260901024415 | 58 | 299 | 9.0 | 16.0 | 0.00 | 0.08 | 0.06 | 93 | 1005.7 |